Location: Praha
(50.0830°N, 14.4670°E)
Time: 11:35:31
(UTC+02:00)

ISS - Pass Details

Date: 03 May 2025
Orbit: 416 x 419 km, 51.6° (Epoch: 18 May)

Event Time Altitude Azimuth Distance (km) Brightness Sun altitude
Exits shadow 03:47:44 13° 281° (W) 1,305 -1.6 -14.5°
Maximum altitude 03:50:35 65° 2° (N) 464 -3.4 -14.2°
Drops below altitude 10° 03:53:56 10° 85° (E) 1,496 -0.2 -13.8°
Sets 03:56:02 0° 89° (E) 2,360 0.8 -13.6°
